Hot Springs, VA

3:32 AM EDT on May 28, 2018 (GMT -0400)
Ingalls

Weather History for KHSP - November, 2011

Change the Weather History Date:

Sunday, November 27, 2011

  Actual Average Record
Temperature  
Mean Temperature 52 °F -  
Max Temperature 57 °F 42 °F 66 °F (2001)
Min Temperature 46 °F 29 °F 8 °F (1996)
Degree Days  
Heating Degree Days 14    
Growing Degree Days 2 (Base 50)    
Moisture  
Dew Point 45 °F    
Average Humidity 80    
Maximum Humidity 93    
Minimum Humidity 67    
Precipitation  
Precipitation 0.00 in - - ()
Sea Level Pressure  
Sea Level Pressure 30.15 in    
Wind  
Wind Speed 14 mph (SSW)    
Max Wind Speed 22 mph    
Max Gust Speed 40 mph    
Visibility 10 miles    
Events      
Averages and records for this station are not official NWS values.
T = Trace of Precipitation, MM = Missing Value Source: NWS Daily Summary

Daily Weather History Graph

Daily Weather History Graph

Search for Another Location

Airport or City:

Astronomy

Nov. 27, 2011 Rise Set
Actual Time 7:12 AM EST 5:01 PM EST
Civil Twilight 6:43 AM EST 5:30 PM EST
Nautical Twilight 6:11 AM EST 6:02 PM EST
Astronomical Twilight 5:39 AM EST 6:34 PM EST
Moon 9:35 AM EST (11/27) 7:38 PM EST (11/27)
Length of Visible Light 10h 46m
Length of Day
9h 49m
Waxing Crescent, 8% of the Moon is Illuminated
Nov 27
Waxing Crescent
Dec 2
First Quarter
Dec 10
Full
Dec 17
Last Quarter
Dec 24
New

Hourly Weather History & Observations

Time (EST) Temp. Windchill Dew Point Humidity Pressure Visibility Wind Dir Wind Speed Gust Speed Precip Events Conditions
12:35 AM 46.4 °F 39.8 °F 42.8 °F 87% 30.21 in 10.0 mi SSW 16.1 mph 27.6 mph N/A   Clear
1:15 AM 46.4 °F 41.5 °F 42.8 °F 87% 30.19 in 10.0 mi SSW 10.4 mph 23.0 mph N/A   Clear
1:35 AM 46.4 °F 40.4 °F 42.8 °F 87% 30.19 in 10.0 mi SSW 13.8 mph 23.0 mph N/A   Clear
1:55 AM 46.4 °F 40.4 °F 42.8 °F 87% 30.19 in 10.0 mi SW 13.8 mph 27.6 mph N/A   Clear
2:15 AM 46.4 °F 40.1 °F 42.8 °F 87% 30.19 in 10.0 mi SW 15.0 mph 28.8 mph N/A   Clear
2:35 AM 46.4 °F 38.7 °F 42.8 °F 87% 30.19 in 10.0 mi SW 20.7 mph 33.4 mph N/A   Clear
2:55 AM 46.4 °F 39.5 °F 42.8 °F 87% 30.19 in 10.0 mi SW 17.3 mph 24.2 mph N/A   Clear
3:15 AM 46.4 °F 39.5 °F 42.8 °F 87% 30.18 in 10.0 mi SW 17.3 mph 27.6 mph N/A   Clear
3:35 AM 48.2 °F - 42.8 °F 82% 30.18 in 10.0 mi SW 21.9 mph 32.2 mph N/A   Clear
3:55 AM 48.2 °F - 44.6 °F 87% 30.18 in 10.0 mi SW 20.7 mph 40.3 mph N/A   Mostly Cloudy
4:15 AM 46.4 °F 39.8 °F 42.8 °F 87% 30.17 in 10.0 mi SW 16.1 mph 25.3 mph N/A   Mostly Cloudy
4:35 AM 46.4 °F 39.8 °F 44.6 °F 93% 30.17 in 10.0 mi SSW 16.1 mph 27.6 mph N/A   Scattered Clouds
4:55 AM 48.2 °F - 44.6 °F 87% 30.17 in 10.0 mi SW 12.7 mph 21.9 mph N/A   Mostly Cloudy
5:15 AM 48.2 °F - 44.6 °F 87% 30.17 in 10.0 mi SW 21.9 mph 32.2 mph N/A   Overcast
5:35 AM 48.2 °F - 44.6 °F 87% 30.17 in 10.0 mi SSW 12.7 mph 23.0 mph N/A   Overcast
5:55 AM 48.2 °F - 44.6 °F 87% 30.17 in 10.0 mi SSW 11.5 mph 19.6 mph N/A   Overcast
6:15 AM 46.4 °F 41.5 °F 44.6 °F 93% 30.17 in 10.0 mi SSW 10.4 mph 20.7 mph N/A   Overcast
6:35 AM 48.2 °F - 44.6 °F 87% 30.17 in 10.0 mi SSW 10.4 mph 23.0 mph N/A   Overcast
6:55 AM 48.2 °F - 44.6 °F 87% 30.17 in 10.0 mi SSW 12.7 mph 20.7 mph N/A   Overcast
7:15 AM 48.2 °F - 44.6 °F 87% 30.17 in 10.0 mi SSW 12.7 mph 20.7 mph N/A   Overcast
7:35 AM 46.4 °F 40.7 °F 44.6 °F 93% 30.17 in 10.0 mi SSW 12.7 mph 20.7 mph N/A   Overcast
7:55 AM 46.4 °F 41.1 °F 44.6 °F 93% 30.17 in 10.0 mi SSW 11.5 mph 21.9 mph N/A   Overcast
8:15 AM 48.2 °F - 44.6 °F 87% 30.17 in 10.0 mi SSW 13.8 mph 24.2 mph N/A   Overcast
8:35 AM 48.2 °F - 44.6 °F 87% 30.18 in 10.0 mi SSW 15.0 mph 24.2 mph N/A   Overcast
8:55 AM 48.2 °F - 44.6 °F 87% 30.18 in 10.0 mi SSW 13.8 mph 19.6 mph N/A   Overcast
9:15 AM 50.0 °F - 46.4 °F 87% 30.18 in 10.0 mi SSW 10.4 mph 17.3 mph N/A   Mostly Cloudy
9:35 AM 48.2 °F - 44.6 °F 87% 30.18 in 10.0 mi South 12.7 mph 21.9 mph N/A   Scattered Clouds
10:15 AM 48.2 °F - 44.6 °F 87% 30.18 in 10.0 mi SSW 11.5 mph 20.7 mph N/A   Scattered Clouds
10:35 AM 50.0 °F - 44.6 °F 82% 30.18 in 10.0 mi SSW 13.8 mph 24.2 mph N/A   Scattered Clouds
10:55 AM 53.6 °F - 46.4 °F 77% 30.17 in 10.0 mi South 11.5 mph 20.7 mph N/A   Scattered Clouds
11:15 AM 51.8 °F - 46.4 °F 82% 30.17 in 10.0 mi SSW 13.8 mph 19.6 mph N/A   Scattered Clouds
11:35 AM 53.6 °F - 46.4 °F 77% 30.16 in 10.0 mi South 15.0 mph 25.3 mph N/A   Scattered Clouds
11:55 AM 53.6 °F - 44.6 °F 72% 30.15 in 10.0 mi SSW 16.1 mph 21.9 mph N/A   Mostly Cloudy
12:15 PM 53.6 °F - 46.4 °F 77% 30.15 in 10.0 mi SW 12.7 mph 26.5 mph N/A   Mostly Cloudy
12:55 PM 53.6 °F - 46.4 °F 77% 30.15 in 10.0 mi SSW 8.1 mph 16.1 mph N/A   Scattered Clouds
1:15 PM 53.6 °F - 46.4 °F 77% 30.14 in 10.0 mi SSW 8.1 mph - N/A   Clear
1:35 PM 53.6 °F - 46.4 °F 77% 30.14 in 10.0 mi SSW 10.4 mph 17.3 mph N/A   Clear
1:55 PM 55.4 °F - 46.4 °F 72% 30.13 in 10.0 mi SSW 11.5 mph - N/A   Scattered Clouds
2:15 PM 57.2 °F - 46.4 °F 67% 30.13 in 10.0 mi SSW 11.5 mph 17.3 mph N/A   Clear
2:35 PM 57.2 °F - 46.4 °F 67% 30.13 in 10.0 mi SSW 10.4 mph 20.7 mph N/A   Clear
2:55 PM 55.4 °F - 44.6 °F 67% 30.13 in 10.0 mi South 13.8 mph 20.7 mph N/A   Scattered Clouds
3:15 PM 55.4 °F - 44.6 °F 67% 30.13 in 10.0 mi South 12.7 mph 18.4 mph N/A   Scattered Clouds
3:35 PM 55.4 °F - 44.6 °F 67% 30.12 in 10.0 mi South 15.0 mph 23.0 mph N/A   Clear
3:55 PM 55.4 °F - 44.6 °F 67% 30.12 in 10.0 mi South 12.7 mph 20.7 mph N/A   Clear
4:15 PM 55.4 °F - 44.6 °F 67% 30.12 in 10.0 mi South 9.2 mph 17.3 mph N/A   Clear
4:35 PM 53.6 °F - 44.6 °F 72% 30.13 in 10.0 mi South 8.1 mph - N/A   Scattered Clouds
4:55 PM 53.6 °F - 44.6 °F 72% 30.12 in 10.0 mi South 8.1 mph - N/A   Scattered Clouds
5:15 PM 53.6 °F - 44.6 °F 72% 30.12 in 10.0 mi South 10.4 mph 16.1 mph N/A   Mostly Cloudy
5:35 PM 53.6 °F - 44.6 °F 72% 30.12 in 10.0 mi South 11.5 mph 17.3 mph N/A   Overcast
5:55 PM 53.6 °F - 44.6 °F 72% 30.12 in 10.0 mi SSE 13.8 mph 21.9 mph N/A   Overcast
6:15 PM 51.8 °F - 44.6 °F 76% 30.12 in 10.0 mi South 12.7 mph 21.9 mph N/A   Overcast
6:35 PM 51.8 °F - 44.6 °F 76% 30.12 in 10.0 mi South 11.5 mph 21.9 mph N/A   Overcast
6:55 PM 51.8 °F - 44.6 °F 76% 30.12 in 10.0 mi South 12.7 mph 19.6 mph N/A   Overcast
7:15 PM 51.8 °F - 44.6 °F 76% 30.13 in 10.0 mi South 12.7 mph 21.9 mph N/A   Mostly Cloudy
7:35 PM 51.8 °F - 44.6 °F 76% 30.12 in 10.0 mi South 11.5 mph 19.6 mph N/A   Scattered Clouds
7:55 PM 51.8 °F - 44.6 °F 76% 30.12 in 10.0 mi South 16.1 mph 25.3 mph N/A   Scattered Clouds
8:15 PM 51.8 °F - 44.6 °F 76% 30.12 in 10.0 mi South 16.1 mph 25.3 mph N/A   Scattered Clouds
8:35 PM 51.8 °F - 44.6 °F 76% 30.12 in 10.0 mi South 17.3 mph 24.2 mph N/A   Scattered Clouds
8:55 PM 51.8 °F - 44.6 °F 76% 30.11 in 10.0 mi South 17.3 mph 20.7 mph N/A   Mostly Cloudy
9:35 PM 51.8 °F - 44.6 °F 76% 30.10 in 10.0 mi South 18.4 mph - N/A   Scattered Clouds
9:55 PM 51.8 °F - 46.4 °F 82% 30.11 in 10.0 mi South 13.8 mph 20.7 mph N/A   Scattered Clouds
10:15 PM 51.8 °F - 46.4 °F 82% 30.10 in 10.0 mi South 13.8 mph 21.9 mph N/A   Scattered Clouds
10:35 PM 51.8 °F - 46.4 °F 82% 30.10 in 10.0 mi South 13.8 mph 21.9 mph N/A   Mostly Cloudy
10:55 PM 51.8 °F - 46.4 °F 82% 30.10 in 10.0 mi South 13.8 mph 21.9 mph N/A   Overcast
11:15 PM 51.8 °F - 48.2 °F 88% 30.10 in 10.0 mi SSE 10.4 mph 16.1 mph N/A   Overcast
11:35 PM 51.8 °F - 48.2 °F 88% 30.11 in 10.0 mi South 12.7 mph 23.0 mph N/A   Overcast
11:55 PM 50.0 °F - 48.2 °F 94% 30.10 in 10.0 mi South 10.4 mph 19.6 mph N/A   Overcast